Location: Cabeza Gorda
(40.0667°N, 4.9667°W)
Time: 20:02:17
(UTC+00:00)

Cosmos 1408 Rocket - Pass Details

Date: 15 January 2026
Orbit: 594 x 623 km, 82.6° (Epoch: 10 February)

Event Time Altitude Azimuth Distance (km) Brightness Sun altitude
Rises 06:15:01 0° 203° (SSW) 2,863 6.9 -16.0°
Reaches altitude 10° 06:17:20 10° 211° (SSW) 1,958 6.0 -15.6°
Maximum altitude 06:21:25 40° 282° (WNW) 896 3.9 -14.8°
Drops below altitude 10° 06:25:30 10° 352° (N) 1,955 5.9 -14.1°
Sets 06:27:50 0° 0° (N) 2,858 6.8 -13.7°
